Time,TemperatureF,DewpointF,PressureIn,WindDirection,WindDirectionDegrees,WindSpeedMPH,WindSpeedGustMPH,Humidity,HourlyPrecipIn,Conditions,Clouds,dailyrainin,SoftwareType,DateUTC
2013-06-24 00:00:00,82.3,72.4,29.43,SSE,163,0.0,3.0,72,0.00,,,0.00,VWS V14.01,2013-06-24 05:00:00,
2013-06-24 00:02:00,82.3,72.4,29.43,SSE,163,0.0,1.0,72,0.00,,,0.00,VWS V14.01,2013-06-24 05:02:00,
2013-06-24 00:07:00,82.2,72.3,29.43,SSE,163,0.0,3.0,72,0.00,,,0.00,VWS V14.01,2013-06-24 05:07:00,
2013-06-24 00:10:00,82.1,72.2,29.43,SSE,162,1.0,3.0,72,0.00,,,0.00,VWS V14.01,2013-06-24 05:10:00,
2013-06-24 00:12:00,82.1,72.6,29.43,SSE,161,0.0,2.0,73,0.00,,,0.00,VWS V14.01,2013-06-24 05:12:00,
2013-06-24 00:17:00,82.0,72.5,29.43,SSE,161,0.0,2.0,73,0.00,,,0.00,VWS V14.01,2013-06-24 05:17:00,
2013-06-24 00:20:00,81.9,72.4,29.43,South,175,0.0,2.0,73,0.00,,,0.00,VWS V14.01,2013-06-24 05:20:00,
2013-06-24 00:22:00,81.8,72.3,29.43,South,178,0.0,0.0,73,0.00,,,0.00,VWS V14.01,2013-06-24 05:22:00,
2013-06-24 00:27:00,81.7,72.2,29.44,South,176,1.0,2.0,73,0.00,,,0.00,VWS V14.01,2013-06-24 05:27:00,
2013-06-24 00:30:00,81.6,72.5,29.44,South,176,0.0,2.0,74,0.00,,,0.00,VWS V14.01,2013-06-24 05:30:00,
2013-06-24 00:32:00,81.5,72.4,29.44,South,176,1.0,1.0,74,0.00,,,0.00,VWS V14.01,2013-06-24 05:32:00,
2013-06-24 00:37:00,81.4,72.3,29.44,South,175,0.0,2.0,74,0.00,,,0.00,VWS V14.01,2013-06-24 05:37:00,
2013-06-24 00:40:00,81.4,72.3,29.44,SSE,167,0.0,5.0,74,0.00,,,0.00,VWS V14.01,2013-06-24 05:40:00,
2013-06-24 00:42:00,81.3,72.2,29.44,SSE,167,0.0,1.0,74,0.00,,,0.00,VWS V14.01,2013-06-24 05:42:00,
2013-06-24 00:47:00,81.2,72.1,29.44,SSE,162,0.0,4.0,74,0.00,,,0.00,VWS V14.01,2013-06-24 05:47:00,
2013-06-24 00:50:00,81.2,72.5,29.44,SSE,163,1.0,4.0,75,0.00,,,0.00,VWS V14.01,2013-06-24 05:50:00,
2013-06-24 00:52:00,81.2,72.5,29.44,SSE,163,0.0,1.0,75,0.00,,,0.00,VWS V14.01,2013-06-24 05:52:00,
2013-06-24 00:57:00,81.1,72.4,29.44,SSE,163,0.0,1.0,75,0.00,,,0.00,VWS V14.01,2013-06-24 05:57:00,
2013-06-24 01:00:00,81.0,72.3,29.45,SSE,163,0.0,1.0,75,0.00,,,0.00,VWS V14.01,2013-06-24 06:00:00,
2013-06-24 01:02:00,80.9,72.2,29.44,South,169,0.0,2.0,75,0.00,,,0.00,VWS V14.01,2013-06-24 06:02:00,
2013-06-24 01:07:00,80.8,72.1,29.44,South,171,0.0,2.0,75,0.00,,,0.00,VWS V14.01,2013-06-24 06:07:00,
2013-06-24 01:10:00,80.8,72.1,29.44,South,171,0.0,2.0,75,0.00,,,0.00,VWS V14.01,2013-06-24 06:10:00,
2013-06-24 01:12:00,80.7,72.0,29.44,South,171,0.0,0.0,75,0.00,,,0.00,VWS V14.01,2013-06-24 06:12:00,
2013-06-24 01:17:00,80.6,71.9,29.45,South,173,0.0,3.0,75,0.00,,,0.00,VWS V14.01,2013-06-24 06:17:00,
2013-06-24 01:20:00,80.6,71.9,29.45,South,173,0.0,3.0,75,0.00,,,0.00,VWS V14.01,2013-06-24 06:20:00,
2013-06-24 01:22:00,80.5,71.8,29.45,South,173,0.0,0.0,75,0.00,,,0.00,VWS V14.01,2013-06-24 06:22:00,
2013-06-24 01:27:00,80.4,71.8,29.45,South,178,0.0,3.0,75,0.00,,,0.00,VWS V14.01,2013-06-24 06:27:00,
2013-06-24 01:30:00,80.4,71.8,29.44,South,175,2.0,3.0,75,0.00,,,0.00,VWS V14.01,2013-06-24 06:30:00,
2013-06-24 01:32:00,80.4,71.8,29.45,South,175,0.0,4.0,75,0.00,,,0.00,VWS V14.01,2013-06-24 06:32:00,
2013-06-24 01:37:00,80.3,71.7,29.45,South,175,0.0,4.0,75,0.00,,,0.00,VWS V14.01,2013-06-24 06:37:00,
2013-06-24 01:40:00,80.2,71.6,29.45,South,190,3.0,4.0,75,0.00,,,0.00,VWS V14.01,2013-06-24 06:40:00,
2013-06-24 01:42:00,80.2,71.6,29.45,South,189,1.0,4.0,75,0.00,,,0.00,VWS V14.01,2013-06-24 06:42:00,
2013-06-24 01:47:00,80.1,71.5,29.45,South,183,2.0,4.0,75,0.00,,,0.00,VWS V14.01,2013-06-24 06:47:00,
2013-06-24 01:50:00,80.1,71.5,29.45,SSW,192,0.0,4.0,75,0.00,,,0.00,VWS V14.01,2013-06-24 06:50:00,
2013-06-24 01:52:00,80.0,71.4,29.45,SSW,192,0.0,1.0,75,0.00,,,0.00,VWS V14.01,2013-06-24 06:52:00,
2013-06-24 01:57:00,79.9,71.7,29.45,SSW,192,2.0,2.0,76,0.00,,,0.00,VWS V14.01,2013-06-24 06:57:00,
2013-06-24 02:00:00,79.8,71.6,29.45,SSW,192,0.0,2.0,76,0.00,,,0.00,VWS V14.01,2013-06-24 07:00:00,
2013-06-24 02:02:00,79.8,71.6,29.45,SSW,192,0.0,1.0,76,0.00,,,0.00,VWS V14.01,2013-06-24 07:02:00,
2013-06-24 02:07:00,79.7,71.5,29.44,SSW,200,0.0,2.0,76,0.00,,,0.00,VWS V14.01,2013-06-24 07:07:00,
2013-06-24 02:10:00,79.7,71.5,29.44,SSW,197,0.0,2.0,76,0.00,,,0.00,VWS V14.01,2013-06-24 07:10:00,
2013-06-24 02:12:00,79.6,71.4,29.45,SSW,200,0.0,1.0,76,0.00,,,0.00,VWS V14.01,2013-06-24 07:12:00,
2013-06-24 02:17:00,79.4,71.6,29.44,South,187,0.0,6.0,77,0.00,,,0.00,VWS V14.01,2013-06-24 07:17:00,
2013-06-24 02:20:00,79.4,71.6,29.44,SSW,195,1.0,6.0,77,0.00,,,0.00,VWS V14.01,2013-06-24 07:20:00,
2013-06-24 02:23:00,79.3,71.5,29.44,SSW,195,0.0,7.0,77,0.00,,,0.00,VWS V14.01,2013-06-24 07:23:00,
2013-06-24 02:28:00,79.1,71.3,29.44,South,181,1.0,7.0,77,0.00,,,0.00,VWS V14.01,2013-06-24 07:28:00,
2013-06-24 02:30:00,79.1,71.3,29.44,South,189,3.0,7.0,77,0.00,,,0.00,VWS V14.01,2013-06-24 07:30:00,
2013-06-24 02:33:00,79.0,71.2,29.45,South,175,5.0,6.0,77,0.00,,,0.00,VWS V14.01,2013-06-24 07:33:00,
2013-06-24 02:38:00,78.9,71.1,29.44,SSE,160,0.0,7.0,77,0.00,,,0.00,VWS V14.01,2013-06-24 07:38:00,
2013-06-24 02:40:00,78.9,71.1,29.44,SSE,160,0.0,7.0,77,0.00,,,0.00,VWS V14.01,2013-06-24 07:40:00,
2013-06-24 02:43:00,78.8,71.0,29.44,SSW,192,2.0,6.0,77,0.00,,,0.00,VWS V14.01,2013-06-24 07:43:00,
2013-06-24 02:48:00,78.7,70.9,29.45,South,184,1.0,7.0,77,0.00,,,0.00,VWS V14.01,2013-06-24 07:48:00,
2013-06-24 02:50:00,78.7,70.9,29.45,SSW,193,0.0,7.0,77,0.00,,,0.00,VWS V14.01,2013-06-24 07:50:00,
2013-06-24 02:53:00,78.7,70.9,29.45,South,184,0.0,4.0,77,0.00,,,0.00,VWS V14.01,2013-06-24 07:53:00,
2013-06-24 02:58:00,78.6,71.2,29.45,SSW,193,3.0,5.0,78,0.00,,,0.00,VWS V14.01,2013-06-24 07:58:00,
2013-06-24 03:00:00,78.5,71.1,29.45,South,184,3.0,5.0,78,0.00,,,0.00,VWS V14.01,2013-06-24 08:00:00,
2013-06-24 03:03:00,78.5,71.1,29.45,SSW,206,1.0,4.0,78,0.00,,,0.00,VWS V14.01,2013-06-24 08:03:00,
2013-06-24 03:08:00,78.4,71.3,29.45,SSE,148,4.0,7.0,79,0.00,,,0.00,VWS V14.01,2013-06-24 08:08:00,
2013-06-24 03:10:00,78.4,71.3,29.45,SSE,155,0.0,7.0,79,0.00,,,0.00,VWS V14.01,2013-06-24 08:10:00,
2013-06-24 03:13:00,78.3,71.3,29.45,South,174,0.0,4.0,79,0.00,,,0.00,VWS V14.01,2013-06-24 08:13:00,
2013-06-24 03:18:00,78.2,71.2,29.45,SSW,193,3.0,4.0,79,0.00,,,0.00,VWS V14.01,2013-06-24 08:18:00,
2013-06-24 03:20:00,78.1,71.1,29.45,South,190,0.0,4.0,79,0.00,,,0.00,VWS V14.01,2013-06-24 08:20:00,
2013-06-24 03:23:00,78.0,71.0,29.44,South,185,0.0,4.0,79,0.00,,,0.00,VWS V14.01,2013-06-24 08:23:00,
2013-06-24 03:28:00,77.9,70.9,29.45,SSW,197,0.0,4.0,79,0.00,,,0.00,VWS V14.01,2013-06-24 08:28:00,
2013-06-24 03:30:00,77.8,71.1,29.45,SSW,196,0.0,4.0,80,0.00,,,0.00,VWS V14.01,2013-06-24 08:30:00,
2013-06-24 03:33:00,77.8,71.1,29.45,SSW,195,0.0,2.0,80,0.00,,,0.00,VWS V14.01,2013-06-24 08:33:00,
2013-06-24 03:39:00,77.6,70.9,29.45,South,169,0.0,4.0,80,0.00,,,0.00,VWS V14.01,2013-06-24 08:39:00,
2013-06-24 03:40:00,77.6,70.9,29.45,South,172,2.0,4.0,80,0.00,,,0.00,VWS V14.01,2013-06-24 08:40:00,
2013-06-24 03:43:00,77.5,71.2,29.45,South,175,0.0,2.0,81,0.00,,,0.00,VWS V14.01,2013-06-24 08:43:00,
2013-06-24 03:49:00,77.3,71.0,29.45,South,175,0.0,3.0,81,0.00,,,0.00,VWS V14.01,2013-06-24 08:49:00,
2013-06-24 03:50:00,77.3,71.0,29.45,South,175,0.0,3.0,81,0.00,,,0.00,VWS V14.01,2013-06-24 08:50:00,
2013-06-24 03:54:00,77.2,70.9,29.45,South,183,0.0,5.0,81,0.00,,,0.00,VWS V14.01,2013-06-24 08:54:00,
2013-06-24 03:59:00,77.1,71.2,29.45,South,183,0.0,5.0,82,0.00,,,0.00,VWS V14.01,2013-06-24 08:59:00,
2013-06-24 04:00:00,77.0,71.1,29.45,South,182,2.0,5.0,82,0.00,,,0.00,VWS V14.01,2013-06-24 09:00:00,
2013-06-24 04:04:00,76.9,71.0,29.45,South,183,1.0,2.0,82,0.00,,,0.00,VWS V14.01,2013-06-24 09:04:00,
2013-06-24 04:09:00,76.8,70.9,29.45,SSW,194,2.0,2.0,82,0.00,,,0.00,VWS V14.01,2013-06-24 09:09:00,
2013-06-24 04:10:00,76.7,70.8,29.45,SSW,196,0.0,2.0,82,0.00,,,0.00,VWS V14.01,2013-06-24 09:10:00,
2013-06-24 04:14:00,76.6,71.1,29.45,SSW,195,0.0,3.0,83,0.00,,,0.00,VWS V14.01,2013-06-24 09:14:00,
2013-06-24 04:19:00,76.5,71.0,29.45,SSW,195,0.0,3.0,83,0.00,,,0.00,VWS V14.01,2013-06-24 09:19:00,
2013-06-24 04:20:00,76.5,71.0,29.45,SSW,195,0.0,3.0,83,0.00,,,0.00,VWS V14.01,2013-06-24 09:20:00,
2013-06-24 04:24:00,76.4,70.9,29.45,SSW,194,0.0,0.0,83,0.00,,,0.00,VWS V14.01,2013-06-24 09:24:00,
2013-06-24 04:29:00,76.2,71.0,29.45,SSW,194,0.0,0.0,84,0.00,,,0.00,VWS V14.01,2013-06-24 09:29:00,
2013-06-24 04:30:00,76.2,71.0,29.45,SSW,194,0.0,0.0,84,0.00,,,0.00,VWS V14.01,2013-06-24 09:30:00,
2013-06-24 04:34:00,76.1,70.9,29.45,South,190,0.0,2.0,84,0.00,,,0.00,VWS V14.01,2013-06-24 09:34:00,
2013-06-24 04:39:00,76.0,70.8,29.45,South,190,0.0,2.0,84,0.00,,,0.00,VWS V14.01,2013-06-24 09:39:00,
2013-06-24 04:40:00,76.0,70.8,29.45,South,190,0.0,2.0,84,0.00,,,0.00,VWS V14.01,2013-06-24 09:40:00,
2013-06-24 04:44:00,75.9,71.1,29.45,South,190,0.0,1.0,85,0.00,,,0.00,VWS V14.01,2013-06-24 09:44:00,
2013-06-24 04:49:00,75.8,71.0,29.45,South,186,0.0,1.0,85,0.00,,,0.00,VWS V14.01,2013-06-24 09:49:00,
2013-06-24 04:50:00,75.8,71.0,29.45,South,186,0.0,1.0,85,0.00,,,0.00,VWS V14.01,2013-06-24 09:50:00,
2013-06-24 04:54:00,75.7,70.9,29.45,South,186,0.0,0.0,85,0.00,,,0.00,VWS V14.01,2013-06-24 09:54:00,
2013-06-24 04:59:00,75.6,71.1,29.45,South,186,0.0,1.0,86,0.00,,,0.00,VWS V14.01,2013-06-24 09:59:00,
2013-06-24 05:00:00,75.6,71.1,29.45,South,186,0.0,1.0,86,0.00,,,0.00,VWS V14.01,2013-06-24 10:00:00,
2013-06-24 05:04:00,75.5,71.0,29.45,South,186,0.0,0.0,86,0.00,,,0.00,VWS V14.01,2013-06-24 10:04:00,
2013-06-24 05:09:00,75.4,70.9,29.46,South,186,0.0,1.0,86,0.00,,,0.00,VWS V14.01,2013-06-24 10:09:00,
2013-06-24 05:10:00,75.4,70.9,29.46,South,186,0.0,1.0,86,0.00,,,0.00,VWS V14.01,2013-06-24 10:10:00,
2013-06-24 05:15:00,75.3,70.8,29.46,South,186,0.0,1.0,86,0.00,,,0.00,VWS V14.01,2013-06-24 10:15:00,
2013-06-24 05:20:00,75.2,70.7,29.46,South,186,0.0,1.0,86,0.00,,,0.00,VWS V14.01,2013-06-24 10:20:00,
2013-06-24 05:25:00,75.1,70.6,29.46,South,186,0.0,0.0,86,0.00,,,0.00,VWS V14.01,2013-06-24 10:25:00,
2013-06-24 05:30:00,75.0,70.9,29.46,South,186,0.0,0.0,87,0.00,,,0.00,VWS V14.01,2013-06-24 10:30:00,
2013-06-24 05:35:00,74.9,70.8,29.46,South,186,0.0,1.0,87,0.00,,,0.00,VWS V14.01,2013-06-24 10:35:00,
2013-06-24 05:40:00,74.9,70.8,29.46,South,186,0.0,1.0,87,0.00,,,0.00,VWS V14.01,2013-06-24 10:40:00,
2013-06-24 05:45:00,74.8,70.7,29.47,South,186,0.0,1.0,87,0.00,,,0.00,VWS V14.01,2013-06-24 10:45:00,
2013-06-24 05:50:00,74.7,70.6,29.47,South,186,0.0,1.0,87,0.00,,,0.00,VWS V14.01,2013-06-24 10:50:00,
2013-06-24 05:55:00,74.6,70.5,29.47,South,186,0.0,0.0,87,0.00,,,0.00,VWS V14.01,2013-06-24 10:55:00,
2013-06-24 06:00:00,74.4,70.3,29.47,South,186,0.0,0.0,87,0.00,,,0.00,VWS V14.01,2013-06-24 11:00:00,
2013-06-24 06:06:00,74.3,70.5,29.47,South,186,0.0,0.0,88,0.00,,,0.00,VWS V14.01,2013-06-24 11:06:00,
2013-06-24 06:10:00,74.2,70.4,29.47,South,186,0.0,0.0,88,0.00,,,0.00,VWS V14.01,2013-06-24 11:10:00,
2013-06-24 06:11:00,74.2,70.4,29.47,South,186,0.0,0.0,88,0.00,,,0.00,VWS V14.01,2013-06-24 11:11:00,
2013-06-24 06:16:00,74.1,70.3,29.47,South,186,0.0,0.0,88,0.00,,,0.00,VWS V14.01,2013-06-24 11:16:00,
2013-06-24 06:20:00,74.0,70.2,29.47,South,186,0.0,0.0,88,0.00,,,0.00,VWS V14.01,2013-06-24 11:20:00,
2013-06-24 06:21:00,74.0,70.2,29.47,South,186,0.0,0.0,88,0.00,,,0.00,VWS V14.01,2013-06-24 11:21:00,
2013-06-24 06:26:00,73.9,70.1,29.47,South,186,0.0,0.0,88,0.00,,,0.00,VWS V14.01,2013-06-24 11:26:00,
2013-06-24 06:30:00,73.9,70.1,29.47,South,186,0.0,1.0,88,0.00,,,0.00,VWS V14.01,2013-06-24 11:30:00,
2013-06-24 06:31:00,73.9,70.1,29.48,South,186,0.0,0.0,88,0.00,,,0.00,VWS V14.01,2013-06-24 11:31:00,
2013-06-24 06:36:00,73.8,70.0,29.48,South,186,0.0,0.0,88,0.00,,,0.00,VWS V14.01,2013-06-24 11:36:00,
2013-06-24 06:40:00,73.8,70.0,29.48,South,186,0.0,0.0,88,0.00,,,0.00,VWS V14.01,2013-06-24 11:40:00,
2013-06-24 06:42:00,73.8,70.0,29.48,South,186,0.0,0.0,88,0.00,,,0.00,VWS V14.01,2013-06-24 11:42:00,
2013-06-24 06:47:00,73.7,70.3,29.48,South,186,0.0,0.0,89,0.00,,,0.00,VWS V14.01,2013-06-24 11:47:00,
2013-06-24 06:50:00,73.7,70.3,29.48,South,186,0.0,0.0,89,0.00,,,0.00,VWS V14.01,2013-06-24 11:50:00,
2013-06-24 06:52:00,73.7,70.3,29.48,South,186,0.0,0.0,89,0.00,,,0.00,VWS V14.01,2013-06-24 11:52:00,
2013-06-24 06:57:00,73.8,70.4,29.48,South,186,0.0,0.0,89,0.00,,,0.00,VWS V14.01,2013-06-24 11:57:00,
2013-06-24 07:00:00,73.8,70.4,29.48,South,186,0.0,0.0,89,0.00,,,0.00,VWS V14.01,2013-06-24 12:00:00,
2013-06-24 07:02:00,73.9,70.5,29.48,South,186,0.0,0.0,89,0.00,,,0.00,VWS V14.01,2013-06-24 12:02:00,
2013-06-24 07:07:00,73.9,70.5,29.48,South,186,0.0,0.0,89,0.00,,,0.00,VWS V14.01,2013-06-24 12:07:00,
2013-06-24 07:10:00,73.9,70.8,29.48,South,186,0.0,1.0,90,0.00,,,0.00,VWS V14.01,2013-06-24 12:10:00,
2013-06-24 07:12:00,73.9,70.8,29.48,South,186,0.0,1.0,90,0.00,,,0.00,VWS V14.01,2013-06-24 12:12:00,
2013-06-24 07:17:00,74.0,70.9,29.49,South,186,0.0,1.0,90,0.00,,,0.00,VWS V14.01,2013-06-24 12:17:00,
2013-06-24 07:20:00,74.1,71.0,29.48,South,186,0.0,1.0,90,0.00,,,0.00,VWS V14.01,2013-06-24 12:20:00,
2013-06-24 07:22:00,74.1,71.0,29.49,South,186,0.0,0.0,90,0.00,,,0.00,VWS V14.01,2013-06-24 12:22:00,
2013-06-24 07:27:00,74.2,71.1,29.49,South,186,0.0,2.0,90,0.00,,,0.00,VWS V14.01,2013-06-24 12:27:00,
2013-06-24 07:30:00,74.3,71.2,29.49,South,186,0.0,2.0,90,0.00,,,0.00,VWS V14.01,2013-06-24 12:30:00,
2013-06-24 07:32:00,74.3,71.2,29.49,South,186,1.0,1.0,90,0.00,,,0.00,VWS V14.01,2013-06-24 12:32:00,
2013-06-24 07:37:00,74.4,71.3,29.49,South,185,0.0,4.0,90,0.00,,,0.00,VWS V14.01,2013-06-24 12:37:00,
2013-06-24 07:40:00,74.5,71.4,29.49,South,185,0.0,4.0,90,0.00,,,0.00,VWS V14.01,2013-06-24 12:40:00,
2013-06-24 07:42:00,74.6,71.5,29.49,South,185,0.0,2.0,90,0.00,,,0.00,VWS V14.01,2013-06-24 12:42:00,
2013-06-24 07:48:00,74.7,71.6,29.49,South,184,0.0,2.0,90,0.00,,,0.00,VWS V14.01,2013-06-24 12:48:00,
2013-06-24 07:50:00,74.8,71.7,29.49,South,184,0.0,2.0,90,0.00,,,0.00,VWS V14.01,2013-06-24 12:50:00,
2013-06-24 07:53:00,74.9,72.1,29.50,South,184,0.0,1.0,91,0.00,,,0.00,VWS V14.01,2013-06-24 12:53:00,
2013-06-24 07:58:00,75.1,72.3,29.50,South,178,1.0,4.0,91,0.00,,,0.00,VWS V14.01,2013-06-24 12:58:00,
2013-06-24 08:00:00,75.1,72.3,29.50,South,180,0.0,4.0,91,0.00,,,0.00,VWS V14.01,2013-06-24 13:00:00,
2013-06-24 08:03:00,75.2,72.1,29.49,SSE,163,1.0,2.0,90,0.00,,,0.00,VWS V14.01,2013-06-24 13:03:00,
2013-06-24 08:08:00,75.4,72.3,29.50,SSE,156,1.0,6.0,90,0.00,,,0.00,VWS V14.01,2013-06-24 13:08:00,
2013-06-24 08:10:00,75.5,72.4,29.50,South,180,0.0,6.0,90,0.00,,,0.00,VWS V14.01,2013-06-24 13:10:00,
2013-06-24 08:13:00,75.7,72.6,29.50,SE,141,2.0,7.0,90,0.00,,,0.00,VWS V14.01,2013-06-24 13:13:00,
2013-06-24 08:18:00,75.9,72.8,29.50,SSW,196,0.0,7.0,90,0.00,,,0.00,VWS V14.01,2013-06-24 13:18:00,
2013-06-24 08:20:00,76.0,72.9,29.50,South,182,1.0,7.0,90,0.00,,,0.00,VWS V14.01,2013-06-24 13:20:00,
2013-06-24 08:23:00,76.3,73.2,29.50,South,175,0.0,2.0,90,0.00,,,0.00,VWS V14.01,2013-06-24 13:23:00,
2013-06-24 08:29:00,77.1,73.6,29.50,WSW,242,0.0,5.0,89,0.00,,,0.00,VWS V14.01,2013-06-24 13:29:00,
2013-06-24 08:30:00,77.3,73.8,29.50,South,187,1.0,5.0,89,0.00,,,0.00,VWS V14.01,2013-06-24 13:30:00,
2013-06-24 08:34:00,77.9,74.1,29.50,South,186,4.0,6.0,88,0.00,,,0.00,VWS V14.01,2013-06-24 13:34:00,
2013-06-24 08:39:00,78.5,74.7,29.50,South,178,0.0,6.0,88,0.00,,,0.00,VWS V14.01,2013-06-24 13:39:00,
2013-06-24 08:40:00,78.7,74.5,29.50,SSE,168,6.0,6.0,87,0.00,,,0.00,VWS V14.01,2013-06-24 13:40:00,
2013-06-24 08:44:00,79.0,74.5,29.50,ENE,63,0.0,9.0,86,0.00,,,0.00,VWS V14.01,2013-06-24 13:44:00,
2013-06-24 08:49:00,79.4,74.5,29.50,SSW,198,0.0,9.0,85,0.00,,,0.00,VWS V14.01,2013-06-24 13:49:00,
2013-06-24 08:50:00,79.4,74.5,29.50,SSW,198,1.0,9.0,85,0.00,,,0.00,VWS V14.01,2013-06-24 13:50:00,
2013-06-24 08:54:00,79.7,74.4,29.50,SW,221,1.0,5.0,84,0.00,,,0.00,VWS V14.01,2013-06-24 13:54:00,
2013-06-24 08:59:00,80.6,75.3,29.50,SSE,151,0.0,6.0,84,0.00,,,0.00,VWS V14.01,2013-06-24 13:59:00,
2013-06-24 09:00:00,80.7,75.1,29.50,SSE,151,0.0,6.0,83,0.00,,,0.00,VWS V14.01,2013-06-24 14:00:00,
2013-06-24 09:04:00,81.3,75.3,29.51,SSW,195,6.0,6.0,82,0.00,,,0.00,VWS V14.01,2013-06-24 14:04:00,
2013-06-24 09:09:00,81.5,74.4,29.51,SSW,197,2.0,6.0,79,0.00,,,0.00,VWS V14.01,2013-06-24 14:09:00,
2013-06-24 09:10:00,81.5,74.4,29.51,South,188,1.0,6.0,79,0.00,,,0.00,VWS V14.01,2013-06-24 14:10:00,
2013-06-24 09:14:00,81.2,73.7,29.51,SW,227,4.0,5.0,78,0.00,,,0.00,VWS V14.01,2013-06-24 14:14:00,
2013-06-24 09:19:00,81.7,74.2,29.51,South,184,0.0,5.0,78,0.00,,,0.00,VWS V14.01,2013-06-24 14:19:00,
2013-06-24 09:20:00,81.9,74.4,29.51,SE,140,2.0,5.0,78,0.00,,,0.00,VWS V14.01,2013-06-24 14:20:00,
2013-06-24 09:24:00,82.3,74.0,29.51,SSE,147,5.0,9.0,76,0.00,,,0.00,VWS V14.01,2013-06-24 14:24:00,
2013-06-24 09:29:00,82.6,74.3,29.51,SSW,209,6.0,9.0,76,0.00,,,0.00,VWS V14.01,2013-06-24 14:29:00,
2013-06-24 09:30:00,82.7,74.0,29.51,SSW,195,0.0,9.0,75,0.00,,,0.00,VWS V14.01,2013-06-24 14:30:00,
2013-06-24 09:34:00,83.4,74.7,29.51,South,177,4.0,6.0,75,0.00,,,0.00,VWS V14.01,2013-06-24 14:34:00,
2013-06-24 09:39:00,83.9,73.9,29.51,SSW,211,5.0,8.0,72,0.00,,,0.00,VWS V14.01,2013-06-24 14:39:00,
2013-06-24 09:40:00,84.0,74.0,29.51,SSW,213,0.0,8.0,72,0.00,,,0.00,VWS V14.01,2013-06-24 14:40:00,
2013-06-24 09:44:00,84.2,73.8,29.51,South,179,4.0,10.0,71,0.00,,,0.00,VWS V14.01,2013-06-24 14:44:00,
2013-06-24 09:49:00,84.6,73.7,29.51,SSW,200,3.0,10.0,70,0.00,,,0.00,VWS V14.01,2013-06-24 14:49:00,
2013-06-24 09:50:00,84.7,73.8,29.51,SSW,193,1.0,10.0,70,0.00,,,0.00,VWS V14.01,2013-06-24 14:50:00,
2013-06-24 09:54:00,85.2,73.4,29.50,South,182,1.0,7.0,68,0.00,,,0.00,VWS V14.01,2013-06-24 14:54:00,
2013-06-24 09:59:00,85.2,73.0,29.50,SE,133,3.0,10.0,67,0.00,,,0.00,VWS V14.01,2013-06-24 14:59:00,
2013-06-24 10:00:00,85.1,73.4,29.50,SSW,196,2.0,10.0,68,0.00,,,0.00,VWS V14.01,2013-06-24 15:00:00,
2013-06-24 10:05:00,84.8,72.6,29.50,SSW,211,0.0,10.0,67,0.00,,,0.00,VWS V14.01,2013-06-24 15:05:00,
2013-06-24 10:10:00,85.0,72.8,29.50,South,181,3.0,12.0,67,0.00,,,0.00,VWS V14.01,2013-06-24 15:10:00,
2013-06-24 10:15:00,85.5,73.3,29.50,SSE,151,2.0,11.0,67,0.00,,,0.00,VWS V14.01,2013-06-24 15:15:00,
2013-06-24 10:20:00,85.5,72.8,29.50,South,184,5.0,11.0,66,0.00,,,0.00,VWS V14.01,2013-06-24 15:20:00,
2013-06-24 10:25:00,85.4,72.8,29.50,WSW,242,1.0,9.0,66,0.00,,,0.00,VWS V14.01,2013-06-24 15:25:00,
2013-06-24 10:30:00,85.7,73.5,29.50,South,185,0.0,9.0,67,0.00,,,0.00,VWS V14.01,2013-06-24 15:30:00,
2013-06-24 10:35:00,85.9,71.8,29.50,ESE,118,1.0,13.0,63,0.00,,,0.00,VWS V14.01,2013-06-24 15:35:00,
2013-06-24 10:40:00,86.0,71.5,29.50,South,180,1.0,13.0,62,0.00,,,0.00,VWS V14.01,2013-06-24 15:40:00,
2013-06-24 10:45:00,86.9,72.8,29.50,SSE,148,3.0,11.0,63,0.00,,,0.00,VWS V14.01,2013-06-24 15:45:00,
2013-06-24 10:50:00,88.1,74.4,29.50,SSE,159,2.0,11.0,64,0.00,,,0.00,VWS V14.01,2013-06-24 15:50:00,
2013-06-24 10:55:00,87.9,73.3,29.50,SW,219,2.0,8.0,62,0.00,,,0.00,VWS V14.01,2013-06-24 15:55:00,
2013-06-24 11:00:00,87.8,73.2,29.50,SSW,192,2.0,8.0,62,0.00,,,0.00,VWS V14.01,2013-06-24 16:00:00,
2013-06-24 11:05:00,88.3,74.6,29.50,South,190,1.0,10.0,64,0.00,,,0.00,VWS V14.01,2013-06-24 16:05:00,
2013-06-24 11:10:00,89.1,74.9,29.50,ESE,108,0.0,10.0,63,0.00,,,0.00,VWS V14.01,2013-06-24 16:10:00,
2013-06-24 11:15:00,89.3,72.1,29.50,South,169,0.0,8.0,57,0.00,,,0.00,VWS V14.01,2013-06-24 16:15:00,
2013-06-24 11:20:00,88.9,73.7,29.50,SW,223,7.0,8.0,61,0.00,,,0.00,VWS V14.01,2013-06-24 16:20:00,
2013-06-24 11:25:00,89.2,72.5,29.50,WSW,240,1.0,7.0,58,0.00,,,0.00,VWS V14.01,2013-06-24 16:25:00,
2013-06-24 11:30:00,89.1,72.4,29.50,SE,130,3.0,7.0,58,0.00,,,0.00,VWS V14.01,2013-06-24 16:30:00,
2013-06-24 11:35:00,89.3,72.6,29.50,South,190,3.0,8.0,58,0.00,,,0.00,VWS V14.01,2013-06-24 16:35:00,
2013-06-24 11:40:00,89.6,72.9,29.50,ENE,78,7.0,7.0,58,0.00,,,0.00,VWS V14.01,2013-06-24 16:40:00,
2013-06-24 11:45:00,90.2,72.9,29.49,SSE,160,2.0,9.0,57,0.00,,,0.00,VWS V14.01,2013-06-24 16:45:00,
2013-06-24 11:50:00,90.4,72.6,29.49,East,84,3.0,6.0,56,0.00,,,0.00,VWS V14.01,2013-06-24 16:50:00,
2013-06-24 11:56:00,90.2,71.3,29.49,East,92,7.0,8.0,54,0.00,,,0.00,VWS V14.01,2013-06-24 16:56:00,
2013-06-24 12:00:00,90.4,71.5,29.49,SE,130,3.0,8.0,54,0.00,,,0.00,VWS V14.01,2013-06-24 17:00:00,
2013-06-24 12:01:00,90.3,72.5,29.49,East,92,5.0,5.0,56,0.00,,,0.00,VWS V14.01,2013-06-24 17:01:00,
2013-06-24 12:06:00,90.5,71.6,29.49,South,190,4.0,13.0,54,0.00,,,0.00,VWS V14.01,2013-06-24 17:06:00,
2013-06-24 12:10:00,90.0,72.2,29.49,South,174,0.0,13.0,56,0.00,,,0.00,VWS V14.01,2013-06-24 17:10:00,
2013-06-24 12:11:00,89.9,72.6,29.49,South,173,0.0,2.0,57,0.00,,,0.00,VWS V14.01,2013-06-24 17:11:00,
2013-06-24 12:16:00,90.9,73.6,29.49,SSE,152,0.0,3.0,57,0.00,,,0.00,VWS V14.01,2013-06-24 17:16:00,
2013-06-24 12:20:00,91.5,73.1,29.48,South,190,2.0,4.0,55,0.00,,,0.00,VWS V14.01,2013-06-24 17:20:00,
2013-06-24 12:21:00,91.7,72.7,29.48,WSW,245,1.0,7.0,54,0.00,,,0.00,VWS V14.01,2013-06-24 17:21:00,
2013-06-24 12:26:00,92.3,73.8,29.48,South,188,0.0,7.0,55,0.00,,,0.00,VWS V14.01,2013-06-24 17:26:00,
2013-06-24 12:30:00,92.2,72.6,29.48,SSW,202,0.0,9.0,53,0.00,,,0.00,VWS V14.01,2013-06-24 17:30:00,
2013-06-24 12:31:00,91.8,71.7,29.48,WNW,285,3.0,7.0,52,0.00,,,0.00,VWS V14.01,2013-06-24 17:31:00,
2013-06-24 12:37:00,91.6,73.2,29.48,SSW,208,2.0,7.0,55,0.00,,,0.00,VWS V14.01,2013-06-24 17:37:00,
2013-06-24 12:40:00,91.9,74.0,29.48,SSW,213,2.0,7.0,56,0.00,,,0.00,VWS V14.01,2013-06-24 17:40:00,
2013-06-24 12:42:00,91.9,72.9,29.48,SW,224,4.0,6.0,54,0.00,,,0.00,VWS V14.01,2013-06-24 17:42:00,
2013-06-24 12:47:00,91.2,73.3,29.48,SSW,195,5.0,6.0,56,0.00,,,0.00,VWS V14.01,2013-06-24 17:47:00,
2013-06-24 12:50:00,91.4,72.4,29.48,SSE,157,6.0,7.0,54,0.00,,,0.00,VWS V14.01,2013-06-24 17:50:00,
2013-06-24 12:52:00,90.9,71.4,29.48,SE,140,3.0,9.0,53,0.00,,,0.00,VWS V14.01,2013-06-24 17:52:00,
2013-06-24 12:57:00,89.8,72.6,29.48,SSE,165,0.0,9.0,57,0.00,,,0.00,VWS V14.01,2013-06-24 17:57:00,
2013-06-24 13:00:00,90.0,72.7,29.48,South,169,0.0,9.0,57,0.00,,,0.00,VWS V14.01,2013-06-24 18:00:00,
2013-06-24 13:02:00,90.3,71.9,29.47,South,179,0.0,6.0,55,0.00,,,0.00,VWS V14.01,2013-06-24 18:02:00,
2013-06-24 13:07:00,91.1,72.2,29.47,SSW,213,7.0,11.0,54,0.00,,,0.00,VWS V14.01,2013-06-24 18:07:00,
2013-06-24 13:10:00,91.3,71.8,29.47,East,86,0.0,11.0,53,0.00,,,0.00,VWS V14.01,2013-06-24 18:10:00,
2013-06-24 13:12:00,91.2,71.7,29.47,SE,137,0.0,5.0,53,0.00,,,0.00,VWS V14.01,2013-06-24 18:12:00,
2013-06-24 13:17:00,92.0,73.0,29.47,SSE,164,5.0,13.0,54,0.00,,,0.00,VWS V14.01,2013-06-24 18:17:00,
2013-06-24 13:20:00,91.6,70.9,29.47,South,179,0.0,13.0,51,0.00,,,0.00,VWS V14.01,2013-06-24 18:20:00,
2013-06-24 13:22:00,91.0,70.9,29.47,SSE,154,3.0,4.0,52,0.00,,,0.00,VWS V14.01,2013-06-24 18:22:00,
2013-06-24 13:27:00,91.6,71.5,29.47,South,185,4.0,8.0,52,0.00,,,0.00,VWS V14.01,2013-06-24 18:27:00,
2013-06-24 13:30:00,91.6,71.5,29.47,SSW,198,1.0,8.0,52,0.00,,,0.00,VWS V14.01,2013-06-24 18:30:00,
2013-06-24 13:32:00,91.5,71.4,29.47,South,174,0.0,6.0,52,0.00,,,0.00,VWS V14.01,2013-06-24 18:32:00,
2013-06-24 13:37:00,92.0,71.3,29.47,SW,224,3.0,6.0,51,0.00,,,0.00,VWS V14.01,2013-06-24 18:37:00,
2013-06-24 13:42:00,92.6,71.8,29.46,South,180,5.0,5.0,51,0.00,,,0.00,VWS V14.01,2013-06-24 18:42:00,
2013-06-24 13:47:00,91.5,69.7,29.46,South,181,3.0,7.0,49,0.00,,,0.00,VWS V14.01,2013-06-24 18:47:00,
2013-06-24 13:50:00,91.0,69.8,29.46,South,189,3.0,7.0,50,0.00,,,0.00,VWS V14.01,2013-06-24 18:50:00,
2013-06-24 13:52:00,90.9,70.8,29.46,South,175,2.0,6.0,52,0.00,,,0.00,VWS V14.01,2013-06-24 18:52:00,
2013-06-24 13:57:00,92.5,71.8,29.45,SSE,163,0.0,8.0,51,0.00,,,0.00,VWS V14.01,2013-06-24 18:57:00,
2013-06-24 14:00:00,92.6,71.8,29.45,SSE,168,1.0,8.0,51,0.00,,,0.00,VWS V14.01,2013-06-24 19:00:00,
2013-06-24 14:03:00,92.5,71.8,29.45,South,180,0.0,7.0,51,0.00,,,0.00,VWS V14.01,2013-06-24 19:03:00,
2013-06-24 14:08:00,93.5,73.8,29.45,East,89,3.0,7.0,53,0.00,,,0.00,VWS V14.01,2013-06-24 19:08:00,
2013-06-24 14:10:00,93.4,70.2,29.45,SE,138,0.0,7.0,47,0.00,,,0.00,VWS V14.01,2013-06-24 19:10:00,
2013-06-24 14:13:00,92.8,73.2,29.45,SSE,155,0.0,4.0,53,0.00,,,0.00,VWS V14.01,2013-06-24 19:13:00,
2013-06-24 14:18:00,92.4,72.8,29.45,SSW,198,0.0,9.0,53,0.00,,,0.00,VWS V14.01,2013-06-24 19:18:00,
2013-06-24 14:20:00,92.7,71.3,29.45,South,175,4.0,9.0,50,0.00,,,0.00,VWS V14.01,2013-06-24 19:20:00,
2013-06-24 14:23:00,92.7,70.8,29.45,South,180,4.0,6.0,49,0.00,,,0.00,VWS V14.01,2013-06-24 19:23:00,
2013-06-24 14:28:00,93.8,72.4,29.44,South,183,4.0,6.0,50,0.00,,,0.00,VWS V14.01,2013-06-24 19:28:00,
2013-06-24 14:30:00,93.5,70.3,29.44,South,184,4.0,9.0,47,0.00,,,0.00,VWS V14.01,2013-06-24 19:30:00,
2013-06-24 14:33:00,92.5,70.0,29.44,SE,146,2.0,9.0,48,0.00,,,0.00,VWS V14.01,2013-06-24 19:33:00,
2013-06-24 14:38:00,92.2,70.3,29.44,South,172,0.0,9.0,49,0.00,,,0.00,VWS V14.01,2013-06-24 19:38:00,
2013-06-24 14:40:00,92.5,71.2,29.44,South,170,2.0,9.0,50,0.00,,,0.00,VWS V14.01,2013-06-24 19:40:00,
2013-06-24 14:43:00,93.7,71.7,29.44,SSW,202,5.0,7.0,49,0.00,,,0.00,VWS V14.01,2013-06-24 19:43:00,
2013-06-24 14:48:00,93.7,72.3,29.43,ESE,117,0.0,7.0,50,0.00,,,0.00,VWS V14.01,2013-06-24 19:48:00,
2013-06-24 14:50:00,93.9,72.4,29.43,South,183,6.0,7.0,50,0.00,,,0.00,VWS V14.01,2013-06-24 19:50:00,
2013-06-24 14:53:00,94.3,70.4,29.43,ESE,110,1.0,9.0,46,0.00,,,0.00,VWS V14.01,2013-06-24 19:53:00,
2013-06-24 14:58:00,94.8,71.4,29.43,South,185,0.0,9.0,47,0.00,,,0.00,VWS V14.01,2013-06-24 19:58:00,
2013-06-24 15:00:00,94.6,70.6,29.43,South,184,3.0,9.0,46,0.00,,,0.00,VWS V14.01,2013-06-24 20:00:00,
2013-06-24 15:03:00,93.6,70.3,29.42,SSW,204,2.0,5.0,47,0.00,,,0.00,VWS V14.01,2013-06-24 20:03:00,
2013-06-24 15:08:00,92.8,70.2,29.42,SE,144,2.0,7.0,48,0.00,,,0.00,VWS V14.01,2013-06-24 20:08:00,
2013-06-24 15:10:00,93.2,72.4,29.42,SE,144,2.0,7.0,51,0.00,,,0.00,VWS V14.01,2013-06-24 20:10:00,
2013-06-24 15:13:00,93.9,70.0,29.42,SE,142,6.0,9.0,46,0.00,,,0.00,VWS V14.01,2013-06-24 20:13:00,
2013-06-24 15:19:00,94.6,71.9,29.42,SSE,159,0.0,9.0,48,0.00,,,0.00,VWS V14.01,2013-06-24 20:19:00,
2013-06-24 15:20:00,95.0,70.3,29.42,SSW,197,0.0,9.0,45,0.00,,,0.00,VWS V14.01,2013-06-24 20:20:00,
2013-06-24 15:24:00,94.1,69.5,29.42,SSE,152,0.0,5.0,45,0.00,,,0.00,VWS V14.01,2013-06-24 20:24:00,
2013-06-24 15:29:00,93.2,70.0,29.42,SE,126,1.0,5.0,47,0.00,,,0.00,VWS V14.01,2013-06-24 20:29:00,
2013-06-24 15:30:00,93.1,71.1,29.42,East,84,1.0,5.0,49,0.00,,,0.00,VWS V14.01,2013-06-24 20:30:00,
2013-06-24 15:34:00,93.6,72.8,29.42,SSW,196,4.0,8.0,51,0.00,,,0.00,VWS V14.01,2013-06-24 20:34:00,
2013-06-24 15:39:00,94.1,71.4,29.41,SE,138,2.0,8.0,48,0.00,,,0.00,VWS V14.01,2013-06-24 20:39:00,
2013-06-24 15:40:00,94.3,72.8,29.42,South,189,0.0,8.0,50,0.00,,,0.00,VWS V14.01,2013-06-24 20:40:00,
2013-06-24 15:44:00,94.2,70.9,29.41,East,90,1.0,6.0,47,0.00,,,0.00,VWS V14.01,2013-06-24 20:44:00,
2013-06-24 15:49:00,94.4,70.4,29.41,South,175,8.0,8.0,46,0.00,,,0.00,VWS V14.01,2013-06-24 20:49:00,
2013-06-24 15:50:00,94.5,71.2,29.41,South,173,0.0,8.0,47,0.00,,,0.00,VWS V14.01,2013-06-24 20:50:00,
2013-06-24 15:54:00,95.5,70.8,29.41,South,178,1.0,3.0,45,0.00,,,0.00,VWS V14.01,2013-06-24 20:54:00,
2013-06-24 16:00:00,95.5,71.4,29.41,SE,125,2.0,6.0,46,0.00,,,0.00,VWS V14.01,2013-06-24 21:00:00,
2013-06-24 16:05:00,95.6,70.2,29.40,ESE,123,5.0,7.0,44,0.00,,,0.00,VWS V14.01,2013-06-24 21:05:00,
2013-06-24 16:10:00,94.6,70.6,29.40,South,188,3.0,7.0,46,0.00,,,0.00,VWS V14.01,2013-06-24 21:10:00,
2013-06-24 16:15:00,95.0,70.3,29.40,SSW,205,2.0,10.0,45,0.00,,,0.00,VWS V14.01,2013-06-24 21:15:00,
2013-06-24 16:20:00,94.2,69.0,29.40,South,180,2.0,3.0,44,0.00,,,0.00,VWS V14.01,2013-06-24 21:20:00,
2013-06-24 16:25:00,94.0,70.1,29.40,SSW,203,5.0,7.0,46,0.00,,,0.00,VWS V14.01,2013-06-24 21:25:00,
2013-06-24 16:30:00,93.6,69.7,29.40,South,177,0.0,7.0,46,0.00,,,0.00,VWS V14.01,2013-06-24 21:30:00,
2013-06-24 16:35:00,94.0,71.3,29.40,South,173,1.0,7.0,48,0.00,,,0.00,VWS V14.01,2013-06-24 21:35:00,
2013-06-24 16:40:00,94.3,69.7,29.39,SSE,152,3.0,4.0,45,0.00,,,0.00,VWS V14.01,2013-06-24 21:40:00,
2013-06-24 16:45:00,94.5,69.9,29.39,SE,138,6.0,7.0,45,0.00,,,0.00,VWS V14.01,2013-06-24 21:45:00,
2013-06-24 16:50:00,94.4,69.8,29.39,SSW,206,0.0,0.0,45,0.00,,,0.00,VWS V14.01,2013-06-24 21:50:00,
2013-06-24 16:55:00,94.6,70.6,29.39,East,94,5.0,5.0,46,0.00,,,0.00,VWS V14.01,2013-06-24 21:55:00,
2013-06-24 17:00:00,94.8,70.8,29.39,SSW,200,2.0,6.0,46,0.00,,,0.00,VWS V14.01,2013-06-24 22:00:00,
2013-06-24 17:05:00,94.9,71.5,29.38,South,176,1.0,7.0,47,0.00,,,0.00,VWS V14.01,2013-06-24 22:05:00,
2013-06-24 17:10:00,95.4,70.7,29.38,South,173,0.0,1.0,45,0.00,,,0.00,VWS V14.01,2013-06-24 22:10:00,
2013-06-24 17:15:00,94.4,69.1,29.38,SSE,153,6.0,10.0,44,0.00,,,0.00,VWS V14.01,2013-06-24 22:15:00,
2013-06-24 17:20:00,94.4,69.8,29.38,SSE,148,0.0,2.0,45,0.00,,,0.00,VWS V14.01,2013-06-24 22:20:00,
2013-06-24 17:25:00,94.4,69.1,29.38,SE,129,0.0,8.0,44,0.00,,,0.00,VWS V14.01,2013-06-24 22:25:00,
2013-06-24 17:30:00,93.9,70.0,29.37,East,87,1.0,1.0,46,0.00,,,0.00,VWS V14.01,2013-06-24 22:30:00,
2013-06-24 17:35:00,94.0,69.4,29.37,South,184,1.0,7.0,45,0.00,,,0.00,VWS V14.01,2013-06-24 22:35:00,
2013-06-24 17:40:00,94.2,69.6,29.37,SSW,195,1.0,7.0,45,0.00,,,0.00,VWS V14.01,2013-06-24 22:40:00,
2013-06-24 17:46:00,93.9,70.0,29.37,ENE,65,1.0,7.0,46,0.00,,,0.00,VWS V14.01,2013-06-24 22:46:00,
2013-06-24 17:50:00,94.2,69.6,29.37,SSE,160,1.0,7.0,45,0.00,,,0.00,VWS V14.01,2013-06-24 22:50:00,
2013-06-24 17:51:00,94.2,69.6,29.37,SSW,202,2.0,4.0,45,0.00,,,0.00,VWS V14.01,2013-06-24 22:51:00,
2013-06-24 17:56:00,94.1,70.2,29.36,ESE,121,2.0,8.0,46,0.00,,,0.00,VWS V14.01,2013-06-24 22:56:00,
2013-06-24 18:00:00,93.8,69.9,29.36,South,173,0.0,8.0,46,0.00,,,0.00,VWS V14.01,2013-06-24 23:00:00,
2013-06-24 18:01:00,93.7,69.2,29.36,South,173,0.0,0.0,45,0.00,,,0.00,VWS V14.01,2013-06-24 23:01:00,
2013-06-24 18:06:00,93.7,69.2,29.36,East,88,5.0,8.0,45,0.00,,,0.00,VWS V14.01,2013-06-24 23:06:00,
2013-06-24 18:10:00,93.7,69.8,29.36,East,89,5.0,8.0,46,0.00,,,0.00,VWS V14.01,2013-06-24 23:10:00,
2013-06-24 18:11:00,93.8,69.3,29.36,South,186,0.0,5.0,45,0.00,,,0.00,VWS V14.01,2013-06-24 23:11:00,
2013-06-24 18:16:00,93.7,68.5,29.36,SSE,153,1.0,10.0,44,0.00,,,0.00,VWS V14.01,2013-06-24 23:16:00,
2013-06-24 18:20:00,93.5,69.0,29.36,SSE,156,3.0,10.0,45,0.00,,,0.00,VWS V14.01,2013-06-24 23:20:00,
2013-06-24 18:21:00,93.3,68.8,29.36,East,88,0.0,5.0,45,0.00,,,0.00,VWS V14.01,2013-06-24 23:21:00,
2013-06-24 18:26:00,93.0,69.2,29.36,East,80,0.0,7.0,46,0.00,,,0.00,VWS V14.01,2013-06-24 23:26:00,
2013-06-24 18:30:00,92.9,69.1,29.36,SSW,206,1.0,7.0,46,0.00,,,0.00,VWS V14.01,2013-06-24 23:30:00,
2013-06-24 18:31:00,92.9,69.1,29.36,SSE,149,4.0,5.0,46,0.00,,,0.00,VWS V14.01,2013-06-24 23:31:00,
2013-06-24 18:36:00,93.2,69.4,29.36,SE,132,1.0,5.0,46,0.00,,,0.00,VWS V14.01,2013-06-24 23:36:00,
2013-06-24 18:40:00,93.3,69.4,29.36,SSW,205,3.0,10.0,46,0.00,,,0.00,VWS V14.01,2013-06-24 23:40:00,
2013-06-24 18:41:00,93.3,68.8,29.36,SE,134,2.0,7.0,45,0.00,,,0.00,VWS V14.01,2013-06-24 23:41:00,
2013-06-24 18:46:00,93.1,68.6,29.36,SSW,197,1.0,9.0,45,0.00,,,0.00,VWS V14.01,2013-06-24 23:46:00,
2013-06-24 18:50:00,93.0,69.2,29.36,SSE,153,1.0,9.0,46,0.00,,,0.00,VWS V14.01,2013-06-24 23:50:00,
2013-06-24 18:52:00,93.0,69.2,29.36,SE,137,1.0,3.0,46,0.00,,,0.00,VWS V14.01,2013-06-24 23:52:00,
2013-06-24 18:57:00,92.9,69.1,29.36,SSW,193,1.0,6.0,46,0.00,,,0.00,VWS V14.01,2013-06-24 23:57:00,
2013-06-24 19:00:00,92.8,69.0,29.36,SSW,197,1.0,6.0,46,0.00,,,0.00,VWS V14.01,2013-06-25 00:00:00,
2013-06-24 19:02:00,92.8,69.0,29.36,South,190,0.0,3.0,46,0.00,,,0.00,VWS V14.01,2013-06-25 00:02:00,
2013-06-24 19:07:00,92.6,68.8,29.36,SSW,200,6.0,6.0,46,0.00,,,0.00,VWS V14.01,2013-06-25 00:07:00,
2013-06-24 19:10:00,92.4,68.6,29.36,SSW,192,0.0,6.0,46,0.00,,,0.00,VWS V14.01,2013-06-25 00:10:00,
2013-06-24 19:12:00,92.4,68.6,29.36,South,191,0.0,1.0,46,0.00,,,0.00,VWS V14.01,2013-06-25 00:12:00,
2013-06-24 19:17:00,92.3,68.5,29.36,SSW,209,2.0,6.0,46,0.00,,,0.00,VWS V14.01,2013-06-25 00:17:00,
2013-06-24 19:20:00,92.2,68.4,29.36,South,175,0.0,6.0,46,0.00,,,0.00,VWS V14.01,2013-06-25 00:20:00,
2013-06-24 19:22:00,92.1,68.4,29.36,SSE,150,2.0,8.0,46,0.00,,,0.00,VWS V14.01,2013-06-25 00:22:00,
2013-06-24 19:27:00,91.9,68.8,29.36,SSW,199,3.0,10.0,47,0.00,,,0.00,VWS V14.01,2013-06-25 00:27:00,
2013-06-24 19:30:00,91.7,68.0,29.36,South,182,1.0,10.0,46,0.00,,,0.00,VWS V14.01,2013-06-25 00:30:00,
2013-06-24 19:32:00,91.6,67.9,29.36,SSE,159,1.0,1.0,46,0.00,,,0.00,VWS V14.01,2013-06-25 00:32:00,
2013-06-24 19:37:00,91.5,67.8,29.36,SSE,153,2.0,10.0,46,0.00,,,0.00,VWS V14.01,2013-06-25 00:37:00,
2013-06-24 19:40:00,91.4,67.7,29.36,SE,143,0.0,10.0,46,0.00,,,0.00,VWS V14.01,2013-06-25 00:40:00,
2013-06-24 19:42:00,91.4,68.3,29.36,SSW,211,4.0,4.0,47,0.00,,,0.00,VWS V14.01,2013-06-25 00:42:00,
2013-06-24 19:47:00,91.3,68.3,29.36,South,190,0.0,7.0,47,0.00,,,0.00,VWS V14.01,2013-06-25 00:47:00,
2013-06-24 19:50:00,91.2,68.2,29.36,South,185,0.0,7.0,47,0.00,,,0.00,VWS V14.01,2013-06-25 00:50:00,
2013-06-24 19:52:00,91.1,68.1,29.36,ESE,111,0.0,2.0,47,0.00,,,0.00,VWS V14.01,2013-06-25 00:52:00,
2013-06-24 19:57:00,90.9,67.9,29.36,ESE,121,0.0,4.0,47,0.00,,,0.00,VWS V14.01,2013-06-25 00:57:00,
2013-06-24 20:00:00,90.8,67.8,29.36,South,169,0.0,5.0,47,0.00,,,0.00,VWS V14.01,2013-06-25 01:00:00,
2013-06-24 20:02:00,90.8,67.8,29.36,SE,142,6.0,11.0,47,0.00,,,0.00,VWS V14.01,2013-06-25 01:02:00,
2013-06-24 20:07:00,90.7,67.7,29.36,South,182,0.0,11.0,47,0.00,,,0.00,VWS V14.01,2013-06-25 01:07:00,
2013-06-24 20:10:00,90.6,67.6,29.36,South,182,0.0,11.0,47,0.00,,,0.00,VWS V14.01,2013-06-25 01:10:00,
2013-06-24 20:12:00,90.6,67.6,29.37,SSE,155,0.0,4.0,47,0.00,,,0.00,VWS V14.01,2013-06-25 01:12:00,
2013-06-24 20:17:00,90.4,68.7,29.37,South,184,0.0,4.0,49,0.00,,,0.00,VWS V14.01,2013-06-25 01:17:00,
2013-06-24 20:20:00,90.3,69.2,29.37,SE,142,0.0,4.0,50,0.00,,,0.00,VWS V14.01,2013-06-25 01:20:00,
2013-06-24 20:23:00,90.2,69.6,29.37,South,175,2.0,5.0,51,0.00,,,0.00,VWS V14.01,2013-06-25 01:23:00,
2013-06-24 20:28:00,89.9,71.6,29.37,East,88,1.0,6.0,55,0.00,,,0.00,VWS V14.01,2013-06-25 01:28:00,
2013-06-24 20:30:00,89.7,71.4,29.37,SE,128,0.0,6.0,55,0.00,,,0.00,VWS V14.01,2013-06-25 01:30:00,
2013-06-24 20:33:00,89.5,71.7,29.38,SE,138,0.0,7.0,56,0.00,,,0.00,VWS V14.01,2013-06-25 01:33:00,
2013-06-24 20:38:00,89.1,72.4,29.38,East,92,3.0,7.0,58,0.00,,,0.00,VWS V14.01,2013-06-25 01:38:00,
2013-06-24 20:40:00,88.9,72.2,29.38,East,92,3.0,7.0,58,0.00,,,0.00,VWS V14.01,2013-06-25 01:40:00,
2013-06-24 20:43:00,88.6,72.4,29.38,ENE,59,0.0,3.0,59,0.00,,,0.00,VWS V14.01,2013-06-25 01:43:00,
2013-06-24 20:48:00,88.4,72.8,29.38,SSE,161,2.0,8.0,60,0.00,,,0.00,VWS V14.01,2013-06-25 01:48:00,
2013-06-24 20:50:00,88.4,72.8,29.38,East,98,1.0,8.0,60,0.00,,,0.00,VWS V14.01,2013-06-25 01:50:00,
2013-06-24 20:54:00,88.2,73.1,29.38,East,82,1.0,6.0,61,0.00,,,0.00,VWS V14.01,2013-06-25 01:54:00,
2013-06-24 20:59:00,87.9,73.3,29.38,ESE,122,1.0,6.0,62,0.00,,,0.00,VWS V14.01,2013-06-25 01:59:00,
2013-06-24 21:00:00,87.8,73.2,29.38,SE,146,0.0,6.0,62,0.00,,,0.00,VWS V14.01,2013-06-25 02:00:00,
2013-06-24 21:04:00,87.7,73.1,29.38,SE,142,1.0,2.0,62,0.00,,,0.00,VWS V14.01,2013-06-25 02:04:00,
2013-06-24 21:09:00,87.5,73.4,29.38,ESE,113,0.0,6.0,63,0.00,,,0.00,VWS V14.01,2013-06-25 02:09:00,
2013-06-24 21:10:00,87.5,73.4,29.38,SE,143,3.0,9.0,63,0.00,,,0.00,VWS V14.01,2013-06-25 02:10:00,
2013-06-24 21:14:00,87.4,73.3,29.38,SE,130,0.0,3.0,63,0.00,,,0.00,VWS V14.01,2013-06-25 02:14:00,
2013-06-24 21:19:00,87.2,73.6,29.39,ESE,117,1.0,3.0,64,0.00,,,0.00,VWS V14.01,2013-06-25 02:19:00,
2013-06-24 21:20:00,87.2,73.6,29.39,ESE,117,2.0,3.0,64,0.00,,,0.00,VWS V14.01,2013-06-25 02:20:00,
2013-06-24 21:24:00,87.0,73.4,29.39,SSW,196,0.0,4.0,64,0.00,,,0.00,VWS V14.01,2013-06-25 02:24:00,
2013-06-24 21:29:00,86.9,73.3,29.39,South,180,0.0,9.0,64,0.00,,,0.00,VWS V14.01,2013-06-25 02:29:00,
2013-06-24 21:30:00,86.8,73.2,29.39,SSE,147,0.0,9.0,64,0.00,,,0.00,VWS V14.01,2013-06-25 02:30:00,
2013-06-24 21:34:00,86.7,73.1,29.39,SSE,167,0.0,5.0,64,0.00,,,0.00,VWS V14.01,2013-06-25 02:34:00,
2013-06-24 21:39:00,86.5,73.3,29.39,ESE,102,0.0,6.0,65,0.00,,,0.00,VWS V14.01,2013-06-25 02:39:00,
2013-06-24 21:40:00,86.5,73.3,29.39,ESE,103,0.0,6.0,65,0.00,,,0.00,VWS V14.01,2013-06-25 02:40:00,
2013-06-24 21:44:00,86.3,73.2,29.39,SSE,153,0.0,3.0,65,0.00,,,0.00,VWS V14.01,2013-06-25 02:44:00,
2013-06-24 21:49:00,86.1,73.4,29.40,ESE,116,0.0,8.0,66,0.00,,,0.00,VWS V14.01,2013-06-25 02:49:00,
2013-06-24 21:50:00,86.1,73.4,29.40,ESE,115,2.0,8.0,66,0.00,,,0.00,VWS V14.01,2013-06-25 02:50:00,
2013-06-24 21:55:00,85.9,73.2,29.39,ESE,117,0.0,5.0,66,0.00,,,0.00,VWS V14.01,2013-06-25 02:55:00,
2013-06-24 22:00:00,85.7,73.5,29.40,East,85,0.0,8.0,67,0.00,,,0.00,VWS V14.01,2013-06-25 03:00:00,
2013-06-24 22:05:00,85.5,73.3,29.40,South,175,0.0,2.0,67,0.00,,,0.00,VWS V14.01,2013-06-25 03:05:00,
2013-06-24 22:10:00,85.4,73.2,29.40,South,173,0.0,2.0,67,0.00,,,0.00,VWS V14.01,2013-06-25 03:10:00,
2013-06-24 22:15:00,85.3,73.6,29.40,South,169,0.0,5.0,68,0.00,,,0.00,VWS V14.01,2013-06-25 03:15:00,
2013-06-24 22:20:00,85.1,73.4,29.41,ESE,111,1.0,1.0,68,0.00,,,0.00,VWS V14.01,2013-06-25 03:20:00,
2013-06-24 22:26:00,84.9,73.2,29.41,SSE,168,0.0,5.0,68,0.00,,,0.00,VWS V14.01,2013-06-25 03:26:00,
2013-06-24 22:30:00,84.8,73.1,29.41,SE,138,1.0,6.0,68,0.00,,,0.00,VWS V14.01,2013-06-25 03:30:00,
2013-06-24 22:31:00,84.8,73.1,29.41,SE,140,1.0,1.0,68,0.00,,,0.00,VWS V14.01,2013-06-25 03:31:00,
2013-06-24 22:36:00,84.7,73.0,29.41,SE,133,0.0,7.0,68,0.00,,,0.00,VWS V14.01,2013-06-25 03:36:00,
2013-06-24 22:40:00,84.6,73.3,29.41,South,169,3.0,7.0,69,0.00,,,0.00,VWS V14.01,2013-06-25 03:40:00,
2013-06-24 22:41:00,84.6,73.3,29.41,SSE,163,1.0,3.0,69,0.00,,,0.00,VWS V14.01,2013-06-25 03:41:00,
2013-06-24 22:46:00,84.5,73.2,29.41,SSE,153,1.0,6.0,69,0.00,,,0.00,VWS V14.01,2013-06-25 03:46:00,
2013-06-24 22:50:00,84.3,73.0,29.41,ESE,117,2.0,6.0,69,0.00,,,0.00,VWS V14.01,2013-06-25 03:50:00,
2013-06-24 22:51:00,84.3,73.0,29.41,ESE,117,1.0,8.0,69,0.00,,,0.00,VWS V14.01,2013-06-25 03:51:00,
2013-06-24 22:56:00,84.2,72.9,29.41,SSE,148,0.0,8.0,69,0.00,,,0.00,VWS V14.01,2013-06-25 03:56:00,
2013-06-24 23:00:00,84.1,72.8,29.41,South,186,0.0,8.0,69,0.00,,,0.00,VWS V14.01,2013-06-25 04:00:00,
2013-06-24 23:01:00,84.1,72.8,29.41,South,186,1.0,1.0,69,0.00,,,0.00,VWS V14.01,2013-06-25 04:01:00,
2013-06-24 23:06:00,83.9,72.7,29.41,SE,139,0.0,7.0,69,0.00,,,0.00,VWS V14.01,2013-06-25 04:06:00,
2013-06-24 23:10:00,83.8,72.6,29.41,SSE,164,1.0,7.0,69,0.00,,,0.00,VWS V14.01,2013-06-25 04:10:00,
2013-06-24 23:11:00,83.8,72.6,29.41,East,82,2.0,4.0,69,0.00,,,0.00,VWS V14.01,2013-06-25 04:11:00,
2013-06-24 23:16:00,83.6,72.4,29.41,SE,144,0.0,4.0,69,0.00,,,0.00,VWS V14.01,2013-06-25 04:16:00,
2013-06-24 23:20:00,83.5,72.3,29.41,SSE,153,0.0,4.0,69,0.00,,,0.00,VWS V14.01,2013-06-25 04:20:00,
2013-06-24 23:21:00,83.4,72.2,29.41,SE,138,2.0,4.0,69,0.00,,,0.00,VWS V14.01,2013-06-25 04:21:00,
2013-06-24 23:26:00,83.2,72.0,29.41,ESE,117,1.0,4.0,69,0.00,,,0.00,VWS V14.01,2013-06-25 04:26:00,
2013-06-24 23:30:00,83.1,71.4,29.41,SE,143,0.0,8.0,68,0.00,,,0.00,VWS V14.01,2013-06-25 04:30:00,
2013-06-24 23:31:00,83.1,71.4,29.41,South,175,4.0,6.0,68,0.00,,,0.00,VWS V14.01,2013-06-25 04:31:00,
2013-06-24 23:36:00,83.0,70.9,29.41,ESE,119,1.0,7.0,67,0.00,,,0.00,VWS V14.01,2013-06-25 04:36:00,
2013-06-24 23:40:00,83.0,70.9,29.42,SE,146,0.0,9.0,67,0.00,,,0.00,VWS V14.01,2013-06-25 04:40:00,
2013-06-24 23:41:00,83.0,70.9,29.42,SSE,159,1.0,5.0,67,0.00,,,0.00,VWS V14.01,2013-06-25 04:41:00,
2013-06-24 23:46:00,82.9,70.4,29.42,SSE,155,1.0,5.0,66,0.00,,,0.00,VWS V14.01,2013-06-25 04:46:00,
2013-06-24 23:50:00,82.9,70.4,29.42,South,182,0.0,5.0,66,0.00,,,0.00,VWS V14.01,2013-06-25 04:50:00,
2013-06-24 23:51:00,82.9,70.4,29.42,SSW,196,2.0,3.0,66,0.00,,,0.00,VWS V14.01,2013-06-25 04:51:00,
2013-06-24 23:56:00,82.8,70.3,29.42,SSE,153,0.0,4.0,66,0.00,,,0.00,VWS V14.01,2013-06-25 04:56:00,